Home   Weather   Tarija   Past weeks

Flag for Bolivia Past Weather in Tarija, Bolivia — Yesterday and Last 2 Weeks

Now
73 °F

Thunderstorms. Broken clouds.


Feels Like: 76 °F
Forecast: 62 / 72 °F
Wind: 7 mph from Southeast

Location: Tarija Airport

Current Time: Jan 18, 2018 at 1:31:50 pm

Latest Report: Jan 18, 2018 at 1:00 pm


Visibility: N/A

Pressure: 30.12 "Hg (24.26 "Hg at 1874m altitude)

Humidity: 65%

Dew Point: 61 °F

Location of TarijaLocation

Past Weather in Tarija — Graph

°F

Tarija Temperature Yesterday

Maximum temperature yesterday: 81 °F (at 2:00 pm)
Minimum temperature yesterday: 59 °F (at 5:00 am)
Average temperature yesterday: 72 °F

High & Low Weather Summary for the Past Weeks

 TemperatureHumidityPressure
High93 °F (Jan 5, 3:30 pm)100% (Jan 6, 7:00 pm)30.30 "Hg (Jan 6, 7:00 pm)
Low54 °F (Jan 15, 5:00 am)25% (Jan 4, 2:00 pm)29.83 "Hg (Jan 5, 2:00 pm)
Average70 °F63%30.09 "Hg
* Reported Jan 3 12:00 pm — Jan 18 12:00 pm, Tarija. Weather by CustomWeather, © 2018

Note: Actual official high and low records may vary slightly from our data, if they occured in-between our weather recording intervals... More about our weather records

Advertising

Tarija Weather History for the Previous 24 Hours

Scroll right to see more
 ConditionsComfort  
Time TempWeatherWind HumidityBarometerVisibility
12:00 pm
Thu, Jan 18
77 °FBroken clouds.7 mph57%30.12 "HgN/A
11:00 am75 °FPartly sunny.5 mph65%30.12 "HgN/A
10:00 am72 °FPartly sunny.No windN/A30.15 "HgN/A
9:00 am68 °FBroken clouds.No wind73%30.15 "HgN/A
8:00 am64 °FBroken clouds.No wind83%30.15 "HgN/A
7:00 am64 °FPartly sunny.No wind78%30.12 "HgN/A
6:00 am63 °FBroken clouds.No wind83%30.12 "HgN/A
5:00 am64 °FPassing clouds.No wind78%30.09 "HgN/A
11:00 pm
Wed, Jan 17
68 °FPartly cloudy.No wind73%30.12 "HgN/A
10:00 pm70 °FPartly cloudy.6 mph69%30.12 "HgN/A
9:00 pm70 °FPassing clouds.6 mph69%30.09 "HgN/A
8:00 pm72 °FPartly cloudy.7 mph65%30.07 "HgN/A
7:00 pm73 °FBroken clouds.7 mph61%30.01 "HgN/A
6:00 pm77 °FBroken clouds.7 mph57%30.01 "HgN/A
5:00 pm79 °FScattered clouds.9 mph54%29.98 "HgN/A
4:00 pm81 °FScattered clouds.12 mph51%29.98 "HgN/A
3:00 pm81 °FScattered clouds.12 mph51%30.04 "HgN/A
2:00 pm81 °FScattered clouds.7 mph51%30.04 "HgN/A
1:00 pm79 °FScattered clouds.9 mph51%30.07 "HgN/A
Weather by CustomWeather, © 2018

See weather overview